COSMOS 1709

导读 | 星芒AI

COSMOS 1709 是苏联于1985年4月19日发射的一颗电子侦察卫星,主要用于监听和收集外国的雷达和通信信号。该卫星属于“Tsel-3”系列,运行在近地轨道,具备先进的信号拦截和分析能力。COSMOS 1709 在冷战期间发挥了重要作用,为苏联提供了重要的情报支持。尽管其具体任务细节未公开,但其存在表明了当时太空在军事侦察中的战略价值。

基本信息
目录编号:
16368
目录名称:
COSMOS 1709
国际标识:
1985-116A
轨道中心:
EARTH
卫星名称:
COSMOS 1709
卫星全名:
--
卫星状态:
在轨 (已飞行14559 天)
发射日期:
1985-12-19 UTC
国别 :
俄罗斯(独联体) (CIS)
星等 :
--
轨道信息
数据来源 国际轨道数据
星历时间: 2025-10-28T19:22:28+0800
19小时前
查看轨道信息
半长轴: 7360.909km
偏心率: 0.0036036
轨道倾角: 82.942°
近地点辐角 52.021°
升交点赤经 284.613°
平近点角 62.296°
近地点: 956.248km
远地点: 1009.3km
周期: 104.751分钟
每日圈数: 13.746927
详细信息
使用方式:
暂无
2D轨道图
3D轨道图
轨道高度分析图
轨道倾角分析图
轨道综合分析图
查看轨道综合分析图